Wind_Speed
30 29 28 27 29 30 24 23 27 24 24 27 26 25 23 23 23 21 21 19 17 17 16 16 18 19 19 18 16 13 12 12 11 9 7 7 6 6 8 9 10 10 9 7 6 7 7 7 6 3 5 7 9 12 13 15 17 16 16 17 17 16 15 14 12 11 10 9 9 9 9 9 8 7 8 9 11 13 14 15 18 19 17 13 11
31 31 30 29 30 31 25 24 28 26 26 28 25 25 23 22 22 21 20 19 18 17 15 15 15 16 18 18 16 14 14 12 13 13 11 10 8 7 8 8 8 9 8 7 6 5 3 2 3 3 4 5 6 9 11 13 15 14 15 15 15 16 16 15 14 12 10 10 9 9 8 7 7 7 7 8 9 12 13 14 16 18 19 17 14
31 32 32 31 31 32 27 24 27 27 26 27 25 24 24 21 21 21 20 20 18 16 14 15 16 15 16 17 15 14 15 13 13 15 13 12 12 11 10 10 9 8 6 6 6 5 4 3 4 3 4 4 3 5 7 9 10 12 13 13 14 15 15 15 15 13 12 11 9 8 7 6 4 4 5 6 7 10 13 15 15 16 17 17 17
31 31 32 33 31 31 29 26 25 26 25 26 26 25 24 23 21 20 20 20 18 18 17 17 18 17 15 16 14 13 14 11 11 14 13 12 13 14 14 13 12 11 11 10 8 7 6 3 3 3 5 6 6 5 4 5 6 9 11 11 11 12 14 15 14 14 13 12 9 6 6 5 3 2 2 3 4 5 8 11 12 12 11 12 15
32 31 31 33 32 31 30 28 25 25 25 26 27 26 25 24 21 20 20 20 20 21 21 18 20 20 18 18 17 15 13 11 13 16 14 14 14 14 16 16 14 13 13 12 10 10 8 5 4 5 7 9 10 8 6 5 5 7 8 8 8 8 10 13 13 13 13 12 10 7 6 4 3 3 1 2 1 1 3 5 6 6 5 7 9
32 32 32 32 33 32 30 30 28 27 27 27 27 26 26 24 21 19 20 20 21 23 21 19 19 19 19 20 19 17 17 16 16 16 15 14 14 14 15 16 16 15 14 12 13 13 10 10 11 9 9 9 10 9 8 7 6 6 6 5 5 6 7 9 10 10 10 10 10 10 7 4 3 3 2 0 1 1 2 2 3 4 5 6 6
31 31 32 32 32 33 32 31 31 31 31 30 29 28 27 25 23 20 20 20 21 21 20 18 17 17 17 17 17 18 20 19 17 16 15 14 14 14 14 14 14 14 13 11 14 15 13 13 13 12 11 9 9 9 8 7 6 6 6 6 5 4 5 6 7 7 8 8 9 10 9 6 5 5 4 3 2 1 2 3 4 5 5 7 8
34 33 33 32 32 34 33 31 32 34 34 32 31 30 28 27 25 22 21 21 20 19 19 18 17 17 17 17 17 19 19 20 18 16 15 14 14 14 13 13 11 11 12 12 13 16 15 14 13 12 12 11 9 9 7 6 5 5 6 5 5 6 6 6 6 6 6 6 6 8 9 8 8 7 6 6 5 4 4 3 3 4 5 5 6
30 31 31 31 32 32 32 31 31 34 35 34 33 32 30 28 27 24 22 22 22 19 18 18 17 18 20 19 19 19 18 19 18 17 16 15 14 14 13 12 11 10 11 10 11 15 16 14 12 11 10 11 11 10 9 8 7 7 8 7 6 6 7 7 7 7 6 6 7 7 7 6 4 4 3 3 4 3 2 2 1 2 2 4 5
26 27 29 30 31 30 30 30 30 31 34 34 33 33 33 32 30 28 25 23 24 22 20 20 20 20 20 19 19 19 19 19 18 17 16 14 14 15 14 13 13 12 12 11 11 14 16 14 11 9 8 10 11 11 10 8 7 7 8 8 8 8 8 8 7 8 7 7 7 7 7 7 6 5 5 4 3 2 2 2 1 2 2 2 2
25 24 27 29 27 26 27 27 28 30 33 34 33 32 33 34 33 31 30 27 26 26 23 22 22 21 19 18 18 18 19 18 17 17 15 14 15 15 14 14 13 13 12 12 13 13 14 13 9 8 9 12 13 11 11 10 10 9 8 8 9 9 8 6 6 7 7 7 7 8 8 8 7 6 5 4 3 2 2 3 4 5 5 4 4
20 19 23 26 22 21 23 23 23 26 31 33 34 33 32 32 31 31 31 30 31 31 27 24 23 22 19 18 17 16 17 16 15 15 14 14 15 15 15 14 14 13 13 13 13 13 13 11 10 10 11 13 13 12 12 11 11 11 10 9 9 8 7 6 5 5 6 6 7 8 8 8 7 6 6 6 5 5 5 5 6 6 6 7 6
20 18 18 20 17 17 21 23 23 24 28 32 32 32 32 32 32 32 32 32 36 36 30 26 24 22 21 19 17 15 15 15 13 13 13 13 15 16 15 15 14 14 13 12 13 12 12 12 11 10 10 10 10 10 10 10 10 10 10 9 9 8 7 6 5 5 4 3 3 4 5 5 5 6 5 5 5 6 5 4 4 5 5 4 3
16 13 12 12 13 13 14 18 22 25 26 29 31 30 30 32 34 34 33 35 40 39 32 27 25 23 21 18 16 15 16 15 13 12 13 13 15 16 15 15 14 14 13 12 12 12 12 11 11 10 9 8 8 8 8 8 8 8 7 7 6 6 5 4 4 4 3 3 2 2 1 2 1 1 1 2 3 4 5 5 4 4 5 3 3
11 9 7 6 9 9 8 8 15 22 22 23 29 30 29 31 31 31 34 38 41 40 33 28 25 23 22 19 16 15 15 15 13 12 12 12 14 15 15 15 14 14 14 13 12 11 11 11 10 9 9 8 7 7 7 7 6 6 6 5 5 6 5 4 4 4 4 3 3 3 3 3 3 3 3 3 3 3 5 6 6 6 5 4 2
13 11 9 6 5 6 6 2 5 12 14 18 27 29 30 31 30 31 36 38 37 34 29 27 24 23 23 20 17 16 15 15 15 13 12 11 11 13 13 13 13 13 13 12 12 11 11 11 10 9 9 8 7 6 6 6 5 5 5 5 5 6 6 6 6 5 5 5 5 4 4 4 4 4 3 3 3 3 3 3 4 5 6 6 5
15 12 11 8 7 7 5 3 5 7 9 12 16 18 23 28 33 35 37 34 31 29 27 24 23 22 22 21 20 17 16 16 16 14 13 11 10 10 10 10 11 11 11 10 11 10 10 10 9 9 8 7 7 6 5 5 4 4 4 5 5 5 6 6 6 6 6 6 5 5 5 5 5 3 3 3 3 2 2 2 2 2 4 5 6
14 14 13 11 9 9 7 5 4 5 8 8 5 3 6 14 25 30 33 32 29 28 28 25 22 21 22 22 21 19 18 16 14 14 13 12 11 10 9 8 7 8 8 7 8 8 7 7 7 7 7 7 6 6 5 5 4 3 3 3 4 5 5 5 5 5 6 5 5 5 5 5 5 4 2 2 2 2 3 3 3 3 4 5 6
14 14 14 12 11 10 8 7 5 4 5 4 3 1 0 3 9 14 21 28 28 26 28 26 23 21 20 21 21 20 18 16 14 12 12 12 11 10 9 7 6 5 5 5 4 4 4 4 4 4 4 4 5 5 5 4 4 3 3 2 2 3 3 3 4 4 4 3 3 3 4 4 5 4 4 4 3 3 4 5 6 5 5 5 5
13 13 12 12 12 11 10 8 7 6 5 4 3 3 3 3 5 6 12 23 27 25 27 27 24 21 20 20 20 18 16 16 14 12 11 11 11 10 10 8 6 5 4 3 3 2 1 0 0 0 1 1 2 2 3 3 3 3 3 3 2 2 3 2 2 2 2 2 1 1 2 2 3 4 5 6 6 5 4 4 5 5 4 5 5
10 10 10 12 12 12 10 10 9 8 7 5 5 5 5 4 5 5 9 19 25 24 25 27 25 24 25 24 20 17 17 16 14 13 12 11 11 11 10 9 7 6 5 4 4 3 3 4 3 3 3 4 5 5 5 5 5 4 4 4 4 4 3 3 3 3 2 3 3 3 2 1 1 2 4 6 6 6 5 4 4 4 4 5 7
10 10 11 12 13 11 10 10 9 9 8 6 5 5 5 5 7 7 9 17 22 21 23 26 26 27 28 27 22 18 17 16 13 13 14 14 13 12 11 9 8 7 6 5 6 6 6 6 6 6 6 6 7 8 8 9 9 9 8 7 7 6 5 4 4 4 3 3 4 4 3 2 0 1 3 5 6 6 5 4 5 5 5 6 9
12 12 13 13 12 11 10 9 9 9 8 6 5 5 5 7 9 10 12 19 22 20 22 25 27 27 27 26 23 19 18 17 14 14 17 18 16 15 14 12 11 9 9 8 8 9 9 10 10 9 9 9 9 10 11 12 12 12 12 12 10 9 8 8 7 6 5 5 5 6 6 5 4 2 3 4 5 5 5 5 6 7 8 8 10
14 13 13 11 11 10 9 9 11 11 9 7 7 8 8 7 8 11 14 19 22 21 23 24 25 26 26 23 21 21 21 20 17 15 17 18 17 16 15 14 13 12 12 11 11 11 11 11 11 11 11 12 13 13 13 13 14 15 15 15 14 12 11 11 10 9 9 9 7 7 7 7 6 5 5 5 7 7 7 8 8 9 11 11 12
13 13 12 11 10 10 9 8 10 12 11 10 9 8 8 7 7 9 12 15 19 21 22 22 21 22 22 20 20 22 23 21 18 16 17 18 19 18 17 16 16 15 15 15 15 15 14 13 12 11 11 14 15 16 16 15 16 17 17 17 17 15 14 14 14 12 12 12 11 9 8 9 8 7 7 7 7 8 8 9 11 12 13 14 14
12 12 12 12 10 8 9 9 9 9 10 10 9 8 8 7 6 7 9 12 15 17 18 18 18 18 18 17 18 20 21 20 19 20 21 21 21 21 20 19 18 18 17 18 18 19 18 18 16 14 13 15 16 15 17 18 19 19 19 19 20 19 17 17 17 15 15 15 13 11 10 10 10 9 8 8 8 8 9 10 11 13 14 15 15
11 12 13 13 11 8 8 8 8 7 7 8 9 9 9 7 5 4 5 7 9 12 13 14 14 15 16 15 16 17 18 17 18 21 21 19 19 20 21 20 20 20 20 21 22 23 23 22 19 16 16 18 18 16 18 22 23 23 23 22 22 21 20 20 19 18 17 16 15 13 12 12 11 10 10 10 10 10 10 11 13 14 15 16 16
10 10 13 14 13 12 10 8 8 7 6 5 6 8 9 9 7 6 5 5 5 7 9 10 12 13 15 15 14 15 16 16 17 20 20 19 20 19 18 18 18 17 17 17 19 21 23 23 23 22 20 20 21 21 22 25 26 27 26 25 24 23 22 21 21 20 19 19 17 15 15 14 13 12 11 11 11 11 12 14 15 16 16 16 16
12 10 11 12 14 13 11 11 12 12 10 7 7 7 7 6 7 8 9 9 8 7 7 7 8 8 10 10 11 12 14 14 15 16 18 19 18 17 16 15 14 14 14 14 14 15 16 18 21 23 22 23 25 27 26 26 27 28 28 27 26 25 23 23 22 21 21 20 19 17 16 15 14 13 13 12 12 12 14 15 16 17 17 17 16
13 15 14 13 13 13 11 10 11 11 11 10 9 9 8 6 6 8 10 10 9 8 8 9 10 9 9 8 9 10 10 10 10 11 12 12 12 12 13 12 11 12 12 12 12 11 12 14 17 20 22 24 27 28 27 27 28 29 28 27 26 26 25 25 24 23 23 22 21 19 17 16 15 15 14 14 13 14 15 16 17 18 18 18 17
17 18 16 14 14 13 11 10 9 9 9 8 8 9 9 6 4 5 8 11 11 9 9 9 10 10 10 10 10 10 9 7 7 7 6 5 5 6 6 5 5 7 7 9 9 9 10 12 14 15 18 20 23 24 25 27 29 30 29 28 27 27 27 27 26 25 25 23 21 20 18 16 17 17 16 14 14 16 17 17 18 19 19 18 18
21 23 19 18 17 14 14 12 10 11 12 10 8 9 8 6 5 5 7 9 10 11 11 9 8 9 9 9 10 9 8 7 7 7 5 4 4 4 3 2 3 4 5 6 7 8 9 10 12 13 15 16 18 19 21 25 29 31 31 31 29 28 29 29 29 27 26 23 21 19 17 18 20 19 17 16 16 18 18 18 19 19 20 19 19
15 25 21 19 18 16 16 15 10 9 10 9 7 8 11 10 8 8 7 6 5 7 9 8 7 8 8 9 10 8 7 8 9 9 8 8 8 6 5 4 5 5 6 7 8 8 9 11 12 13 14 15 17 18 19 22 26 28 31 32 31 30 30 31 30 29 27 23 20 18 18 20 22 20 18 18 19 20 20 20 20 20 20 21 22
4 19 19 18 20 20 18 16 12 9 10 10 5 6 11 12 9 8 7 5 4 4 6 7 7 7 7 8 8 8 8 10 10 10 10 9 9 8 7 7 6 7 8 8 9 11 12 13 14 14 15 16 17 18 20 21 22 24 27 30 31 32 32 31 30 28 24 20 18 18 19 20 20 19 19 20 21 21 21 20 21 21 21 22 23
12 11 12 14 18 19 18 16 13 10 10 8 3 3 7 8 7 7 8 7 7 5 6 8 8 7 7 7 7 8 10 10 9 8 7 7 7 8 8 9 9 9 9 9 10 11 11 12 13 14 14 15 15 16 17 19 20 21 24 27 29 31 32 31 27 23 19 18 18 17 17 17 17 18 20 21 21 20 20 21 21 22 23 24 25
18 15 14 13 10 11 13 12 10 8 7 4 1 3 7 6 5 6 7 7 8 7 6 8 8 8 8 7 7 10 11 11 10 7 5 4 4 4 5 6 8 9 10 10 11 12 12 13 14 15 15 14 14 13 14 15 16 18 20 23 25 29 32 30 24 19 17 17 16 16 16 16 17 18 19 19 19 19 19 20 20 21 23 25 26
12 10 9 8 6 5 5 4 4 5 6 5 3 2 5 7 6 6 6 6 7 7 7 7 8 9 7 6 8 10 10 9 8 6 3 2 3 4 4 4 5 6 8 9 10 11 12 13 15 16 16 15 15 14 14 14 15 15 17 21 25 28 30 25 19 17 17 17 15 16 17 17 18 18 18 18 19 19 20 21 22 23 25 27 28
10 8 6 6 6 3 2 1 2 3 5 8 5 2 2 5 6 7 7 7 7 8 8 8 8 9 7 7 9 10 9 8 7 6 6 6 7 6 6 6 6 7 7 9 10 12 13 14 15 16 17 17 16 15 15 15 16 16 17 21 25 27 25 20 16 15 16 15 15 16 16 17 18 18 18 19 20 21 22 23 25 26 28 29 30
10 10 9 10 11 7 3 4 3 3 5 7 7 6 6 6 7 8 9 10 9 9 10 9 9 9 9 9 8 8 8 9 9 9 10 11 10 9 9 8 8 9 9 9 11 12 14 16 16 16 17 18 17 16 16 17 17 17 18 21 25 26 24 20 16 14 12 13 15 15 15 16 16 17 18 20 21 23 24 25 26 28 30 31 32
13 14 13 12 12 8 6 5 4 7 8 8 7 7 8 8 9 10 12 13 13 12 12 12 10 10 11 12 11 10 10 12 13 13 13 12 12 12 12 12 12 11 10 10 12 14 16 17 17 17 18 18 18 18 18 18 18 18 20 22 25 24 22 20 17 15 13 13 14 14 14 16 17 18 20 21 22 23 24 26 28 30 32 34 35
17 18 18 16 14 12 10 7 5 7 8 9 9 9 9 11 12 14 15 15 16 16 16 16 15 14 14 15 14 14 13 13 13 13 13 14 15 16 17 17 16 14 13 11 13 16 18 19 19 19 19 19 18 18 18 18 18 19 20 22 22 20 17 17 17 16 15 16 17 18 18 19 20 21 21 22 23 25 27 28 30 32 34 35 36
21 20 19 19 18 16 14 12 11 11 12 12 12 13 13 12 13 14 15 15 16 16 16 16 17 17 17 17 16 16 15 15 15 15 16 18 19 19 20 20 19 17 14 13 15 18 20 21 22 22 22 21 19 18 18 18 18 19 20 20 17 15 15 16 18 18 18 19 20 21 21 22 22 22 23 24 25 27 28 30 31 32 32 32 31
23 23 22 21 21 21 19 18 16 16 17 16 16 17 16 15 15 17 17 17 17 18 18 18 18 18 18 18 18 17 16 16 17 17 18 20 21 22 22 22 20 18 15 14 16 19 20 22 23 24 23 21 18 17 16 16 17 18 18 16 13 13 16 18 19 19 19 20 22 23 23 23 22 23 24 25 26 27 28 29 28 27 26 25 23
25 25 25 25 26 26 25 23 21 20 20 20 21 22 21 20 20 21 21 21 21 20 21 21 20 20 20 20 19 19 19 19 19 19 20 22 23 24 24 22 21 17 14 15 18 20 21 22 23 22 20 17 15 14 15 15 15 16 15 14 14 15 17 19 20 20 21 21 21 20 19 19 19 20 22 23 24 25 24 23 22 22 21 21 20
27 26 26 25 27 28 28 28 26 24 23 23 23 24 25 26 25 22 21 22 21 21 21 22 22 22 21 21 21 21 20 20 20 21 22 24 25 24 23 22 21 18 15 16 19 21 22 23 22 20 17 14 14 15 16 16 16 16 16 16 17 18 18 20 20 20 17 15 13 13 14 15 16 18 19 20 20 20 19 19 19 19 19 20 22
26 26 24 23 23 25 27 29 30 29 28 28 27 27 27 27 26 24 23 23 24 24 22 21 21 21 21 21 21 20 20 19 18 19 21 22 24 23 23 22 21 18 16 17 19 20 21 22 22 20 17 14 15 17 18 18 17 17 16 16 17 17 18 18 17 14 11 10 10 12 13 15 16 16 17 18 17 17 17 17 18 19 20 21 21
29 28 27 25 25 25 26 26 26 25 24 23 23 22 21 20 19 18 18 20 22 22 20 20 21 21 22 23 22 21 21 20 19 20 20 21 21 21 22 23 22 19 19 20 19 19 21 22 21 19 16 16 17 19 18 17 16 15 15 15 15 15 13 12 10 8 8 9 10 12 13 14 14 15 16 16 17 18 18 18 19 20 19 19 19
31 31 30 29 29 28 28 27 24 21 19 19 19 19 19 18 17 16 16 16 17 18 19 22 22 22 24 25 25 23 22 20 21 22 22 22 22 19 18 21 22 21 21 21 20 21 22 22 21 19 17 18 19 19 18 16 15 14 13 12 11 9 7 6 6 6 8 9 10 11 11 12 13 13 14 16 17 18 18 18 18 18 18 19 21
31 31 30 30 30 29 29 30 30 27 25 24 24 23 23 23 23 23 22 21 20 20 21 22 21 21 22 23 25 25 22 20 22 23 23 22 23 20 17 17 17 19 20 19 18 19 21 21 20 19 18 19 20 19 16 14 13 12 10 8 6 4 4 4 6 7 9 9 9 10 10 10 12 14 15 16 17 17 17 17 17 18 20 22 23
25 25 25 27 28 28 27 29 30 30 29 29 29 28 28 27 27 28 28 27 26 25 25 26 25 24 23 22 23 24 22 21 23 25 25 24 23 21 19 18 17 18 18 17 17 18 20 21 19 17 15 15 16 16 15 13 11 9 7 5 3 3 4 5 7 8 8 8 8 8 8 11 14 15 16 15 15 16 17 17 18 20 21 22 23
22 24 25 26 27 28 27 28 28 27 27 28 29 30 30 29 30 29 29 28 27 26 27 28 27 24 21 18 19 22 24 25 25 24 22 21 20 17 17 18 18 18 17 16 15 16 17 18 17 16 15 14 14 13 13 11 9 7 5 4 3 3 4 5 6 6 6 6 5 6 9 13 15 14 13 13 13 14 16 17 19 20 21 22 23
Wind_Direction
171 170 172 171 170 171 175 182 187 190 187 181 178 176 173 165 160 155 155 153 149 149 145 142 142 143 149 155 154 152 148 146 146 152 151 150 159 169 174 181 177 170 170 172 176 184 200 222 229 214 209 210 205 208 210 208 210 211 207 209 212 212 213 215 217 220 223 226 235 250 260 259 248 242 239 232 229 229 228 229 226 221 223 229 236
172 172 175 174 172 175 180 184 185 188 186 183 181 179 177 169 164 160 157 160 159 151 144 144 147 148 152 157 156 159 165 162 154 152 148 149 154 155 165 177 183 191 193 182 174 171 155 176 210 206 196 201 201 193 193 202 209 210 209 212 216 217 216 215 218 220 226 238 251 260 262 257 249 250 254 249 240 235 232 229 227 225 225 227 228
175 177 178 175 174 178 184 185 185 189 188 187 187 183 181 175 170 168 165 168 166 155 152 152 155 158 157 159 159 154 158 162 162 164 164 160 163 163 161 158 153 156 162 160 166 166 149 172 209 195 172 169 171 176 181 193 208 214 214 217 220 220 218 219 221 224 233 245 258 260 245 235 243 254 269 268 253 244 237 233 232 231 230 233 234
179 181 180 176 177 182 187 185 184 190 192 192 194 191 187 183 178 177 175 174 168 165 171 167 162 167 166 161 162 154 150 151 149 152 155 149 151 157 154 149 141 136 145 159 171 175 175 195 219 189 156 134 117 123 141 163 193 208 213 218 221 221 221 221 222 225 234 240 244 243 230 228 237 252 309 307 274 251 237 234 237 237 237 243 240
181 181 181 180 180 184 188 188 187 192 195 196 199 199 194 190 185 184 183 179 174 176 181 178 169 172 171 166 167 163 153 148 139 134 133 131 135 144 150 153 152 146 154 165 167 168 164 142 135 155 152 136 122 117 125 137 158 183 197 210 219 224 220 218 219 224 233 235 231 226 221 222 227 236 286 350 316 238 206 218 229 228 242 263 257
179 181 182 184 185 186 189 191 192 194 195 196 199 202 201 197 192 190 190 185 182 185 186 183 179 177 176 172 172 168 157 150 142 133 130 129 127 130 140 152 159 158 162 164 161 162 152 128 129 142 149 148 143 140 141 140 138 151 166 178 200 221 220 217 217 220 227 229 228 228 222 204 197 217 228 154 17 266 212 224 236 239 262 278 282
180 182 184 188 190 189 191 194 196 196 195 194 197 203 205 201 195 193 196 194 193 192 189 187 186 183 181 174 166 159 152 147 141 134 129 127 125 124 127 138 152 160 164 158 154 157 148 132 134 145 150 149 151 157 154 147 145 147 147 136 140 170 192 209 213 213 223 226 223 225 225 222 223 233 246 259 281 270 265 286 281 278 291 293 287
179 181 183 187 190 190 194 198 200 201 198 196 199 203 208 206 199 195 196 201 205 200 193 192 189 181 177 170 159 152 147 143 140 136 133 131 130 128 126 126 130 139 147 151 154 155 148 138 140 150 154 153 160 170 167 166 180 188 178 158 142 143 145 158 176 183 199 208 205 214 224 231 238 244 254 266 266 265 279 295 298 301 324 333 317
179 182 183 187 191 194 200 203 206 208 206 206 206 205 206 208 205 203 202 205 213 210 199 196 192 180 172 163 154 149 145 142 141 140 140 141 133 124 119 115 112 109 114 126 145 156 156 149 152 161 162 166 178 188 188 194 214 224 216 199 179 167 150 143 147 150 153 156 164 183 200 197 193 200 210 231 244 257 270 264 273 275 314 1 349
181 186 187 191 196 200 205 209 213 214 212 212 211 206 205 208 210 211 210 212 218 218 207 201 194 181 170 160 151 149 149 147 146 146 146 140 128 119 113 110 110 109 106 103 113 142 159 162 168 172 160 155 164 175 181 182 189 196 203 199 184 173 165 154 144 143 143 143 153 166 175 169 155 152 166 181 192 197 198 196 227 254 263 337 340
184 186 187 191 197 204 209 214 219 221 220 218 215 213 211 212 215 213 209 212 221 221 213 205 196 181 168 161 154 151 152 152 151 150 146 133 123 118 117 115 114 112 112 109 104 119 145 157 162 152 130 124 126 131 132 127 126 132 147 166 169 167 168 167 162 162 165 166 165 164 165 165 162 164 176 184 189 207 237 255 262 253 246 249 250
169 172 183 189 196 209 215 220 225 227 226 223 222 222 215 211 212 208 203 209 220 222 215 209 198 180 170 168 161 153 153 155 154 150 141 131 124 122 120 119 118 116 114 114 112 113 122 130 130 123 118 115 112 111 109 105 105 104 108 121 133 141 146 147 151 159 171 181 182 183 185 184 186 196 211 224 232 241 256 265 264 258 252 253 257
134 141 164 181 191 207 216 221 227 231 230 228 226 221 211 207 206 202 200 207 218 219 213 209 201 181 175 176 167 157 154 155 154 147 139 128 122 120 119 118 118 120 118 116 117 117 118 118 117 115 111 108 108 108 106 103 101 100 101 103 106 111 113 114 119 121 133 156 173 190 197 200 210 222 237 250 254 257 261 262 263 271 280 274 236
119 129 148 174 188 199 211 222 229 231 231 232 229 221 214 212 207 201 199 205 214 214 208 206 200 183 179 183 175 163 155 154 154 150 143 132 123 121 121 120 119 119 119 119 118 120 123 122 121 120 113 107 105 104 104 102 97 96 96 96 100 101 100 105 109 110 114 111 97 87 102 123 152 186 298 323 320 318 325 334 324 301 296 285 203
97 99 110 165 195 196 204 229 234 229 228 229 226 222 221 216 206 200 200 205 210 209 204 203 199 185 182 189 187 173 161 157 157 156 152 140 127 126 127 125 124 123 122 122 122 122 123 124 125 125 123 119 114 108 104 101 98 96 97 98 102 100 103 109 107 108 113 111 110 98 86 87 83 81 70 42 22 8 4 2 352 339 329 322 279
96 88 90 125 166 177 193 215 212 216 222 223 219 221 227 222 210 204 203 203 204 203 200 199 196 187 185 194 199 187 174 169 168 167 165 152 135 130 130 127 124 124 124 124 125 125 123 125 127 128 130 130 127 122 112 106 104 100 100 98 96 97 99 101 100 102 105 106 113 116 112 105 91 86 91 85 71 46 40 36 9 349 347 350 343
115 112 109 120 133 143 157 134 133 162 178 198 209 221 226 211 196 197 199 198 199 199 197 198 197 190 187 197 207 200 189 184 179 176 173 165 152 139 134 132 127 123 124 123 124 125 126 127 129 132 135 135 133 131 125 121 119 112 106 103 103 107 104 101 101 102 103 104 104 105 106 101 88 70 62 62 59 48 43 44 13 335 337 341 337
126 127 124 128 138 145 149 141 142 160 172 185 196 212 206 180 177 188 196 197 200 199 195 195 198 197 193 201 211 207 198 195 189 182 179 172 165 158 153 147 138 130 126 124 120 120 123 127 131 135 137 141 141 140 138 134 137 135 122 113 111 111 108 109 112 108 106 106 100 95 91 91 86 69 56 53 42 39 38 34 20 350 337 335 326
128 128 129 129 129 138 147 151 160 170 183 204 216 205 202 152 161 178 192 198 202 201 195 194 197 202 202 208 216 213 204 200 194 185 186 183 177 175 175 171 168 159 145 140 132 119 111 115 126 137 144 151 151 151 153 148 149 152 142 133 120 112 116 127 129 122 116 109 101 97 91 89 86 75 67 66 63 63 60 51 40 24 6 360 345
129 130 136 132 126 130 133 141 158 163 167 181 182 183 212 217 181 161 182 195 201 201 196 193 194 198 203 209 215 216 211 205 198 192 194 196 192 191 192 193 200 200 187 185 187 176 175 145 105 311 248 218 217 207 200 196 186 181 178 181 179 167 172 181 170 156 161 172 170 161 133 91 72 62 54 46 40 40 45 44 35 23 6 353 344
133 136 141 141 136 132 133 144 159 166 173 178 164 161 174 200 198 179 183 193 197 197 194 193 193 193 199 203 202 201 200 197 198 203 205 201 199 201 205 208 210 214 217 227 242 241 242 252 260 277 290 287 287 283 269 261 255 244 235 230 229 229 224 218 213 215 229 239 245 239 201 136 82 50 44 36 24 17 16 6 354 348 339 326 318
128 124 128 138 142 141 145 153 163 173 181 180 169 166 158 149 155 163 181 187 188 191 192 194 194 193 200 204 198 194 194 188 184 194 200 200 197 196 199 204 211 222 238 252 269 277 277 275 272 276 283 282 285 288 283 277 274 271 266 260 251 250 261 260 240 240 260 265 268 278 284 273 242 21 25 22 16 10 356 330 322 321 308 294 287
128 120 121 131 143 153 162 163 163 173 182 180 174 167 150 136 136 140 160 174 179 185 189 191 194 196 201 203 196 190 195 198 193 186 187 191 195 198 200 205 212 224 236 245 257 270 277 282 283 286 290 291 289 286 283 280 278 276 274 272 265 259 265 274 273 273 279 276 269 275 287 290 288 309 341 351 356 356 346 328 321 319 309 296 290
133 132 131 131 132 138 150 161 166 171 176 174 165 159 153 148 142 141 155 171 179 182 184 188 195 199 201 203 198 189 191 201 208 202 193 192 198 207 212 215 219 225 233 241 249 254 260 268 277 283 291 296 296 292 287 281 279 279 276 273 271 265 262 267 272 273 274 279 277 275 281 285 286 292 306 325 339 340 339 334 328 324 318 311 307
136 137 133 124 115 113 116 134 158 172 179 175 164 158 156 153 150 148 153 167 179 184 187 192 200 203 204 206 204 199 198 205 218 225 222 215 210 215 222 225 228 231 235 243 248 248 247 246 249 257 270 280 282 284 285 284 281 280 276 272 271 267 262 262 266 265 265 270 275 278 284 288 290 294 297 308 324 330 331 328 323 320 316 312 311
143 145 139 130 120 109 104 109 129 157 175 184 185 177 169 166 163 157 157 165 176 186 193 197 201 205 207 207 209 211 212 218 228 229 227 225 221 221 226 230 234 238 239 242 242 240 241 240 237 243 258 266 263 263 271 278 279 276 272 269 268 266 262 260 262 262 260 262 268 271 278 286 291 295 298 303 312 319 319 316 315 314 312 311 310
153 151 144 141 140 138 125 109 106 121 144 168 183 187 191 197 193 170 167 175 180 188 198 204 207 209 210 213 222 226 223 221 223 219 217 221 224 225 230 236 241 245 247 248 246 245 246 245 245 250 261 263 260 259 264 266 267 267 265 264 264 263 261 260 260 259 258 258 261 265 271 279 286 291 296 301 305 308 310 312 313 313 312 311 311
162 149 141 137 135 141 148 144 130 119 117 129 152 170 185 194 192 173 149 147 161 183 200 210 214 214 215 218 221 220 215 213 215 215 215 220 223 225 230 232 233 237 241 246 247 249 250 249 250 254 259 261 262 266 265 258 257 258 258 258 259 259 259 258 256 254 255 257 259 262 269 277 285 291 295 297 300 305 310 313 314 312 310 309 309
173 168 161 151 140 138 141 145 147 143 138 134 131 143 160 168 168 160 146 132 127 133 150 171 182 190 201 206 206 205 206 209 214 217 217 218 220 219 219 220 222 227 232 236 241 246 247 246 248 251 254 255 256 259 258 253 253 255 253 253 254 255 255 254 251 250 252 256 260 264 268 275 282 289 292 293 297 303 308 311 312 310 308 306 307
182 177 173 169 163 158 146 133 136 141 144 146 144 148 160 163 149 148 149 143 132 123 122 128 132 135 139 149 168 184 191 196 203 208 210 211 213 215 217 225 234 235 234 236 239 244 245 245 247 249 252 253 254 255 254 250 252 254 252 250 250 251 252 250 247 249 253 257 262 266 269 274 280 284 287 289 295 301 306 308 308 306 304 304 305
186 174 175 180 176 173 168 153 145 152 155 158 170 173 173 173 156 147 152 155 155 149 140 134 134 138 138 137 146 155 157 158 160 165 175 180 189 203 213 228 242 239 239 242 244 249 255 256 255 254 253 252 252 255 255 253 253 253 252 251 249 247 248 247 246 249 253 256 260 264 268 275 283 287 287 288 294 300 303 306 306 305 303 302 305
192 177 174 177 175 173 179 176 166 162 153 145 157 172 173 165 152 157 168 169 168 164 161 158 149 146 150 156 159 157 155 157 158 158 157 147 153 173 191 228 258 264 264 262 257 259 265 267 264 259 256 256 256 257 259 257 255 253 253 253 249 245 245 246 245 248 250 252 257 262 270 283 289 290 290 292 296 299 303 305 305 303 303 305 308
199 187 179 175 175 174 178 180 177 173 168 165 164 169 177 174 159 161 182 193 174 165 173 175 157 150 166 178 176 168 167 176 180 184 185 179 177 185 200 223 247 259 262 266 267 263 263 265 265 264 263 264 264 262 260 256 255 255 253 250 247 244 243 244 243 244 246 250 256 264 274 286 290 289 291 294 295 298 301 302 302 301 303 306 310
166 187 177 167 168 166 167 171 171 169 176 185 180 163 181 190 183 181 199 205 173 164 191 191 168 167 187 187 174 171 178 183 187 194 200 200 200 200 204 211 221 236 248 258 265 267 269 269 269 270 271 270 270 269 266 261 258 256 252 247 246 245 243 240 237 237 241 249 258 266 276 284 287 287 290 291 292 296 299 300 300 301 302 305 307
85 136 137 141 157 162 164 168 171 169 172 182 202 225 217 219 216 220 229 213 187 185 212 210 194 189 194 185 178 189 196 194 197 207 214 215 211 208 212 219 225 233 242 249 253 259 269 275 275 274 274 275 278 276 272 266 260 256 252 247 245 244 241 236 231 230 239 251 258 264 271 278 279 280 283 286 288 292 294 295 296 297 299 302 303
84 94 99 107 128 154 167 175 184 187 179 160 139 237 236 229 215 225 242 230 205 202 214 215 212 209 202 193 200 211 213 212 218 228 229 220 217 222 232 238 238 239 243 250 254 255 258 266 273 276 276 281 286 283 275 267 260 257 254 247 242 239 237 233 229 232 245 252 256 261 269 274 274 274 277 280 282 284 284 285 287 290 293 295 296
68 76 89 90 87 117 147 170 190 201 212 200 149 163 217 214 207 211 235 253 242 231 228 226 228 229 220 211 220 226 228 235 244 250 252 261 280 291 297 291 277 258 250 256 263 264 262 262 267 273 277 281 285 284 280 274 269 265 256 245 237 234 234 233 233 241 249 252 256 263 271 275 275 276 279 281 283 283 281 282 285 288 290 291 291
22 20 20 6 4 42 100 85 99 136 228 232 232 287 256 224 227 229 235 248 246 241 244 240 233 232 228 222 229 234 239 247 251 251 259 274 284 286 293 303 302 288 272 263 262 265 266 263 264 269 273 275 278 281 282 279 272 264 254 243 236 233 233 237 241 246 249 254 259 265 272 274 276 278 281 282 282 281 281 283 286 288 289 290 291
4 6 5 358 359 2 310 273 250 248 285 283 273 276 264 243 245 248 251 252 245 246 253 242 222 218 220 218 217 217 224 232 239 252 266 273 274 276 286 297 299 294 284 267 259 260 262 261 261 263 266 269 270 271 272 272 268 260 252 244 238 234 235 238 239 238 240 249 257 263 268 269 268 270 272 274 275 276 278 282 285 287 288 289 290
337 337 337 343 350 347 324 301 252 241 272 296 280 260 255 255 260 263 262 258 250 250 254 246 232 229 233 232 227 226 235 244 252 263 271 274 275 280 286 292 295 293 288 270 255 255 258 261 262 261 262 264 263 260 262 266 265 258 251 245 239 235 236 236 233 229 229 236 244 246 247 251 254 259 264 268 271 275 278 282 284 286 288 289 289
325 320 317 320 324 322 316 311 279 248 263 281 276 268 266 268 269 266 262 260 256 256 257 256 253 252 249 245 242 244 248 251 257 264 268 272 279 283 284 289 292 291 288 272 255 253 256 258 259 261 262 262 258 255 257 259 259 253 249 245 240 236 239 242 240 234 228 230 237 238 240 246 252 258 263 269 275 279 281 283 285 287 288 289 290
316 314 312 311 311 310 306 299 290 280 278 280 282 283 279 273 268 264 263 265 264 261 260 259 257 255 253 252 252 252 251 250 253 256 258 263 270 273 277 283 286 286 284 271 257 257 259 259 258 260 262 261 258 255 253 252 251 246 242 241 239 240 246 249 245 237 231 233 241 245 248 254 260 267 273 277 281 283 285 286 287 288 290 291 293
308 308 307 304 302 302 299 293 287 283 281 282 284 286 283 276 269 267 269 273 270 264 261 260 257 256 256 257 259 257 254 253 253 253 256 260 262 265 271 276 278 280 279 267 260 261 261 260 259 258 258 258 256 251 244 240 239 235 232 235 241 249 254 251 244 239 240 243 247 251 257 265 273 279 283 284 285 287 288 289 291 294 297 300 301
299 298 298 298 297 296 295 292 286 280 278 278 280 283 283 279 275 272 270 270 269 265 261 259 258 259 259 259 259 258 257 257 256 256 258 259 261 265 269 269 270 273 269 259 260 261 259 257 257 255 254 252 246 239 232 225 223 222 222 230 239 246 251 250 244 243 245 247 252 259 268 277 282 284 284 285 287 288 290 294 298 302 306 310 310
296 294 293 294 293 293 292 290 286 282 279 277 277 279 280 280 279 274 267 263 265 265 262 259 259 261 262 262 261 261 261 261 261 260 260 260 261 264 264 263 262 263 258 253 255 256 254 254 255 254 251 246 234 222 213 207 208 213 219 226 231 236 240 243 244 246 250 254 262 272 278 280 281 281 283 284 285 288 292 297 302 305 308 310 309
296 296 295 295 294 294 293 289 285 283 280 278 276 274 274 277 276 270 264 264 266 267 264 262 261 260 260 262 264 263 263 264 265 265 263 260 259 260 261 260 253 247 247 249 251 253 253 254 256 254 247 234 216 205 202 202 204 209 216 223 227 230 235 239 243 250 260 268 272 275 278 281 282 283 284 286 289 293 297 299 300 301 303 306 311
294 295 295 292 291 295 299 297 291 284 278 274 273 269 267 270 272 267 262 263 265 264 260 260 262 262 259 259 260 261 261 261 263 265 262 258 259 261 260 252 242 235 240 245 249 254 256 255 251 242 227 211 200 195 197 201 204 209 216 223 227 229 232 236 240 247 259 268 275 282 286 286 284 285 288 292 296 298 297 295 293 294 300 308 315
293 292 290 288 286 290 295 296 294 289 282 276 275 273 270 268 267 266 264 262 262 263 261 260 263 265 263 259 257 259 262 259 257 259 260 260 264 266 255 243 238 238 241 246 253 259 257 252 243 226 206 194 192 194 196 200 207 216 221 221 222 222 225 233 246 262 276 283 287 288 285 280 281 287 291 292 293 293 293 294 295 301 309 314 313
293 292 290 287 286 287 288 287 285 283 281 278 273 271 271 271 269 267 266 265 262 260 259 259 262 268 270 265 261 262 262 258 255 257 259 261 263 262 254 248 248 250 251 253 258 257 250 243 232 220 211 203 194 190 192 196 201 205 206 204 207 222 245 271 287 293 294 290 283 276 275 283 294 300 299 297 298 302 307 311 314 316 316 314 312
288 288 286 285 285 285 285 284 281 279 278 276 273 270 268 267 266 264 264 265 266 264 262 263 266 270 273 271 266 259 251 248 254 259 259 256 253 251 253 257 262 264 261 255 250 246 241 234 223 209 207 211 203 190 187 189 188 188 190 196 217 252 278 293 295 293 287 276 271 277 295 309 312 309 308 310 316 320 323 322 320 319 317 316 315
280 280 280 281 280 280 280 282 282 281 277 274 271 270 268 266 265 264 264 265 265 264 262 261 262 267 271 269 264 255 247 248 253 255 252 247 243 243 251 256 256 254 249 244 242 237 233 234 226 203 188 192 197 190 182 179 177 177 184 200 234 268 285 288 287 284 277 272 283 316 330 325 318 313 315 322 325 325 323 321 320 320 319 319 317
Height
1488 1491 1493 1496 1498 1501 1503 1505 1507 1510 1512 1514 1515 1516 1517 1518 1519 1519 1520 1521 1521 1522 1523 1523 1524 1524 1524 1524 1524 1523 1523 1523 1523 1524 1525 1526 1527 1528 1529 1529 1530 1531 1533 1534 1536 1537 1538 1538 1538 1538 1538 1540 1541 1542 1542 1542 1542 1543 1544 1545 1546 1546 1546 1546 1547 1547 1548 1549 1549 1549 1550 1550 1550 1550 1551 1551 1551 1552 1553 1553 1554 1554 1555 1556 1556
1489 1491 1493 1495 1498 1500 1503 1504 1506 1509 1511 1513 1514 1515 1517 1518 1518 1519 1520 1521 1522 1523 1523 1523 1524 1524 1524 1523 1523 1523 1523 1523 1523 1524 1525 1526 1527 1528 1528 1529 1530 1530 1532 1533 1534 1535 1536 1537 1537 1538 1538 1539 1540 1541 1541 1541 1541 1542 1543 1544 1545 1545 1545 1545 1546 1547 1547 1548 1548 1548 1549 1549 1549 1549 1549 1549 1549 1550 1551 1551 1552 1553 1554 1554 1555
1488 1490 1492 1494 1496 1499 1501 1503 1505 1508 1509 1511 1512 1514 1515 1517 1518 1519 1520 1521 1522 1523 1524 1524 1524 1524 1523 1522 1522 1522 1523 1524 1524 1525 1526 1527 1528 1529 1530 1530 1531 1532 1533 1534 1534 1535 1535 1536 1536 1537 1538 1538 1539 1539 1540 1540 1541 1541 1542 1543 1543 1544 1544 1544 1545 1545 1546 1546 1547 1547 1548 1548 1548 1548 1548 1548 1548 1549 1549 1550 1551 1551 1552 1553 1553
1486 1489 1491 1493 1495 1497 1499 1502 1504 1506 1508 1509 1511 1513 1514 1516 1518 1519 1520 1521 1522 1523 1524 1525 1524 1524 1523 1522 1522 1522 1523 1523 1524 1525 1526 1527 1528 1530 1531 1532 1533 1533 1534 1535 1535 1536 1536 1536 1537 1538 1538 1538 1538 1538 1539 1539 1539 1540 1541 1541 1541 1542 1542 1543 1543 1544 1544 1545 1545 1546 1547 1547 1547 1547 1546 1547 1547 1548 1548 1549 1550 1551 1551 1552 1551
1484 1487 1490 1492 1494 1496 1498 1500 1502 1504 1506 1508 1510 1512 1513 1515 1518 1519 1521 1522 1522 1523 1524 1524 1524 1524 1523 1523 1522 1522 1522 1523 1523 1525 1526 1527 1528 1529 1531 1532 1533 1534 1534 1535 1536 1537 1537 1537 1537 1537 1537 1538 1538 1537 1538 1538 1538 1538 1539 1539 1540 1540 1540 1541 1542 1542 1543 1543 1544 1545 1545 1545 1546 1546 1546 1546 1547 1547 1548 1549 1549 1550 1551 1551 1550
1483 1485 1488 1491 1493 1495 1497 1499 1501 1502 1505 1507 1509 1511 1513 1515 1517 1519 1521 1522 1523 1524 1524 1525 1524 1524 1523 1522 1521 1521 1521 1522 1523 1524 1525 1526 1528 1529 1531 1532 1533 1534 1535 1535 1536 1536 1537 1537 1537 1537 1537 1537 1537 1537 1537 1537 1537 1538 1538 1538 1538 1539 1539 1539 1540 1541 1541 1542 1543 1543 1544 1544 1545 1545 1546 1546 1547 1547 1548 1548 1549 1549 1550 1550 1549
1482 1484 1487 1489 1492 1494 1496 1498 1500 1502 1503 1506 1508 1510 1512 1513 1515 1518 1520 1522 1523 1524 1525 1525 1525 1525 1524 1523 1521 1520 1520 1521 1522 1523 1524 1526 1527 1529 1530 1531 1533 1533 1534 1535 1536 1536 1537 1537 1537 1537 1536 1536 1537 1537 1537 1537 1538 1538 1538 1538 1538 1538 1538 1538 1539 1540 1540 1541 1542 1543 1543 1543 1544 1545 1545 1546 1546 1547 1547 1548 1548 1549 1549 1549 1548
1480 1483 1486 1488 1490 1492 1495 1497 1499 1501 1502 1504 1506 1508 1510 1512 1513 1515 1519 1522 1524 1525 1525 1526 1526 1526 1525 1523 1522 1521 1520 1520 1521 1522 1524 1525 1526 1528 1529 1530 1532 1533 1534 1534 1535 1537 1537 1537 1537 1537 1537 1537 1537 1538 1538 1538 1537 1537 1538 1538 1538 1538 1538 1538 1538 1539 1540 1541 1541 1542 1542 1543 1544 1544 1545 1545 1546 1546 1547 1547 1548 1548 1548 1548 1547
1481 1484 1486 1488 1490 1492 1494 1496 1498 1500 1501 1502 1504 1506 1508 1510 1512 1512 1516 1522 1524 1525 1526 1526 1527 1526 1525 1523 1521 1521 1520 1520 1521 1522 1523 1524 1525 1527 1528 1530 1531 1532 1533 1534 1535 1536 1537 1537 1537 1537 1537 1538 1538 1538 1538 1538 1537 1537 1537 1538 1538 1538 1538 1538 1539 1539 1540 1540 1541 1542 1542 1543 1543 1544 1544 1544 1545 1545 1546 1547 1547 1547 1547 1547 1547
1480 1482 1484 1487 1489 1491 1493 1495 1497 1498 1499 1501 1503 1505 1506 1508 1511 1511 1514 1520 1525 1526 1527 1526 1526 1525 1524 1522 1520 1519 1519 1520 1521 1522 1523 1524 1525 1526 1528 1529 1531 1532 1533 1534 1534 1535 1536 1537 1537 1537 1538 1538 1538 1538 1538 1538 1537 1537 1537 1537 1538 1538 1538 1539 1539 1539 1540 1541 1541 1542 1542 1542 1543 1543 1544 1544 1544 1545 1545 1546 1546 1546 1546 1546 1546
1479 1482 1484 1487 1489 1491 1492 1494 1496 1497 1498 1500 1502 1504 1505 1507 1510 1511 1513 1519 1525 1527 1527 1526 1525 1524 1522 1521 1519 1518 1518 1519 1520 1521 1522 1523 1524 1525 1527 1528 1530 1531 1532 1533 1534 1535 1536 1537 1537 1537 1538 1538 1538 1538 1538 1538 1537 1537 1537 1538 1538 1539 1539 1539 1540 1540 1540 1541 1541 1542 1542 1542 1543 1543 1544 1544 1544 1544 1545 1545 1545 1545 1545 1545 1545
1480 1483 1485 1487 1490 1491 1492 1492 1493 1495 1496 1497 1499 1502 1504 1506 1510 1512 1513 1518 1524 1526 1526 1526 1525 1524 1522 1520 1519 1517 1518 1519 1520 1521 1522 1523 1524 1525 1526 1528 1529 1530 1532 1533 1534 1535 1536 1537 1538 1538 1538 1538 1538 1538 1539 1539 1539 1539 1539 1539 1540 1540 1540 1540 1541 1541 1541 1541 1541 1542 1542 1543 1543 1543 1543 1544 1544 1544 1544 1544 1544 1544 1544 1544 1544
1481 1483 1485 1487 1489 1490 1491 1491 1492 1493 1493 1495 1497 1499 1502 1504 1507 1509 1509 1514 1520 1523 1524 1526 1525 1524 1522 1520 1519 1518 1518 1519 1520 1521 1522 1523 1523 1525 1526 1527 1529 1530 1531 1533 1534 1535 1536 1537 1538 1539 1539 1539 1539 1540 1540 1540 1540 1540 1540 1541 1541 1541 1541 1541 1541 1541 1541 1542 1542 1542 1543 1543 1543 1543 1543 1544 1544 1544 1544 1544 1544 1544 1544 1543 1543
1480 1482 1484 1486 1487 1488 1489 1489 1490 1490 1491 1493 1494 1496 1499 1500 1502 1505 1506 1509 1515 1519 1521 1523 1524 1523 1522 1521 1520 1519 1518 1519 1520 1521 1522 1523 1523 1524 1526 1527 1528 1530 1531 1533 1534 1535 1536 1537 1538 1539 1539 1540 1540 1541 1541 1541 1541 1542 1542 1542 1542 1542 1543 1542 1542 1542 1542 1542 1542 1543 1543 1543 1543 1543 1544 1544 1544 1544 1544 1544 1544 1543 1543 1543 1543
1479 1481 1483 1485 1485 1487 1488 1487 1486 1486 1488 1490 1492 1493 1495 1496 1498 1501 1503 1506 1510 1515 1518 1520 1522 1522 1522 1521 1520 1519 1519 1520 1521 1522 1523 1523 1523 1525 1526 1527 1529 1530 1531 1533 1534 1535 1536 1537 1538 1539 1540 1541 1541 1541 1542 1542 1543 1543 1543 1543 1543 1543 1543 1543 1543 1543 1543 1543 1543 1543 1543 1543 1543 1543 1543 1543 1543 1543 1543 1543 1543 1543 1543 1543 1542
1480 1482 1484 1485 1486 1486 1487 1486 1484 1484 1486 1487 1489 1492 1493 1495 1498 1499 1501 1504 1508 1513 1517 1519 1520 1521 1520 1521 1520 1519 1519 1520 1521 1522 1523 1524 1524 1525 1526 1527 1529 1530 1531 1532 1534 1535 1536 1537 1538 1539 1540 1541 1542 1542 1543 1543 1544 1544 1544 1544 1544 1544 1544 1544 1544 1544 1544 1543 1543 1543 1543 1543 1543 1543 1543 1543 1543 1543 1543 1543 1543 1542 1542 1542 1542
1482 1484 1485 1486 1486 1486 1486 1485 1485 1484 1486 1487 1488 1490 1491 1493 1497 1499 1501 1504 1507 1512 1516 1518 1519 1519 1519 1521 1521 1520 1519 1520 1521 1522 1524 1524 1525 1525 1526 1527 1529 1530 1531 1532 1534 1535 1536 1537 1538 1539 1540 1541 1542 1543 1544 1544 1544 1545 1545 1545 1545 1545 1545 1545 1545 1545 1544 1544 1544 1544 1544 1544 1543 1544 1544 1543 1543 1543 1543 1543 1543 1542 1542 1542 1541
1485 1485 1486 1486 1486 1486 1486 1485 1485 1485 1486 1487 1487 1489 1489 1491 1494 1497 1501 1504 1505 1507 1511 1514 1516 1517 1519 1520 1521 1520 1520 1520 1522 1523 1524 1525 1525 1525 1526 1527 1528 1530 1531 1532 1534 1535 1536 1537 1538 1539 1540 1541 1542 1543 1544 1545 1545 1545 1546 1546 1546 1546 1546 1546 1546 1546 1546 1546 1545 1545 1545 1544 1544 1544 1544 1544 1544 1544 1544 1543 1543 1543 1542 1542 1542
1486 1485 1486 1485 1485 1486 1486 1486 1486 1485 1486 1487 1488 1489 1490 1492 1494 1496 1499 1502 1503 1505 1507 1510 1512 1515 1518 1521 1522 1522 1522 1522 1523 1524 1526 1526 1527 1527 1526 1527 1528 1530 1531 1532 1534 1535 1536 1537 1539 1540 1541 1542 1543 1543 1544 1545 1545 1546 1546 1546 1547 1547 1547 1547 1547 1547 1547 1547 1546 1546 1546 1546 1545 1545 1545 1545 1544 1544 1544 1544 1543 1543 1543 1542 1542
1485 1485 1485 1485 1486 1486 1486 1486 1486 1486 1486 1486 1488 1490 1490 1491 1493 1495 1497 1499 1501 1503 1505 1508 1510 1513 1517 1520 1523 1524 1525 1525 1525 1526 1526 1527 1528 1528 1527 1527 1528 1529 1530 1532 1533 1535 1536 1537 1539 1540 1541 1542 1543 1544 1544 1545 1545 1546 1546 1547 1547 1547 1547 1547 1547 1547 1547 1547 1547 1547 1547 1546 1546 1545 1545 1545 1544 1544 1544 1543 1543 1543 1542 1542 1542
1484 1485 1485 1485 1486 1486 1487 1487 1486 1486 1487 1486 1488 1489 1489 1490 1491 1493 1495 1497 1499 1501 1504 1507 1508 1509 1512 1516 1519 1521 1523 1525 1526 1527 1527 1527 1528 1528 1528 1528 1528 1528 1529 1530 1532 1533 1535 1536 1538 1539 1541 1542 1543 1544 1544 1545 1545 1546 1546 1546 1547 1547 1547 1547 1547 1547 1547 1547 1547 1547 1547 1547 1546 1546 1545 1545 1544 1543 1543 1542 1542 1542 1542 1541 1541
1485 1485 1485 1486 1486 1487 1487 1487 1487 1487 1487 1487 1488 1489 1489 1489 1491 1493 1495 1496 1499 1501 1503 1504 1505 1506 1509 1513 1517 1520 1523 1526 1527 1527 1527 1526 1527 1527 1527 1527 1527 1527 1528 1529 1530 1532 1534 1535 1537 1538 1540 1541 1543 1543 1544 1545 1545 1545 1546 1546 1546 1546 1546 1546 1546 1547 1547 1547 1546 1546 1546 1546 1546 1546 1545 1545 1544 1543 1543 1542 1541 1541 1541 1541 1540
1486 1486 1486 1486 1486 1487 1487 1488 1488 1488 1488 1489 1489 1490 1490 1490 1491 1493 1495 1497 1499 1501 1503 1504 1505 1507 1509 1512 1515 1518 1521 1525 1526 1526 1525 1525 1525 1525 1526 1526 1526 1527 1527 1528 1529 1530 1532 1533 1535 1537 1538 1540 1541 1543 1544 1544 1545 1545 1545 1545 1545 1545 1545 1545 1545 1545 1545 1546 1546 1545 1545 1545 1545 1545 1545 1545 1544 1543 1543 1542 1541 1541 1540 1540 1539
1487 1487 1487 1487 1487 1487 1488 1488 1489 1489 1489 1490 1491 1491 1492 1491 1492 1494 1496 1498 1500 1501 1503 1505 1506 1507 1508 1511 1515 1515 1518 1522 1524 1524 1525 1524 1524 1524 1525 1525 1526 1526 1526 1526 1527 1528 1529 1531 1532 1534 1535 1537 1538 1540 1541 1543 1544 1544 1545 1545 1545 1545 1544 1544 1544 1543 1543 1544 1544 1544 1544 1544 1544 1544 1544 1544 1543 1543 1542 1542 1541 1540 1539 1539 1538
1489 1489 1488 1488 1488 1488 1489 1489 1489 1490 1490 1491 1492 1492 1493 1493 1494 1495 1496 1498 1500 1502 1504 1506 1508 1508 1508 1511 1513 1514 1515 1517 1520 1523 1524 1523 1523 1523 1523 1524 1525 1525 1525 1525 1525 1526 1526 1527 1528 1531 1532 1533 1534 1535 1537 1540 1541 1542 1543 1543 1544 1544 1544 1543 1543 1542 1542 1541 1542 1542 1542 1542 1542 1543 1543 1542 1542 1542 1541 1541 1540 1539 1538 1538 1537
1491 1490 1490 1489 1489 1489 1490 1490 1491 1491 1492 1492 1492 1493 1494 1494 1495 1496 1498 1499 1501 1502 1504 1506 1508 1508 1509 1510 1512 1513 1513 1513 1516 1518 1520 1521 1521 1521 1521 1522 1523 1524 1525 1525 1525 1525 1524 1524 1525 1527 1529 1530 1530 1532 1534 1536 1538 1539 1540 1540 1541 1542 1542 1542 1541 1541 1541 1540 1540 1540 1540 1540 1541 1541 1541 1541 1540 1540 1540 1540 1539 1538 1537 1536 1535
1492 1491 1491 1490 1490 1491 1491 1492 1492 1492 1493 1493 1493 1493 1494 1495 1496 1497 1498 1499 1501 1502 1504 1505 1506 1507 1508 1509 1510 1511 1512 1512 1513 1514 1517 1519 1519 1519 1520 1520 1521 1522 1523 1524 1524 1524 1524 1524 1524 1526 1528 1530 1530 1530 1532 1532 1533 1534 1535 1536 1537 1538 1539 1540 1540 1540 1540 1540 1539 1539 1539 1539 1539 1539 1539 1539 1539 1538 1538 1537 1537 1536 1535 1534 1533
1493 1492 1491 1491 1491 1492 1493 1493 1493 1493 1494 1494 1494 1495 1495 1495 1496 1497 1498 1499 1500 1502 1503 1504 1505 1506 1507 1508 1509 1510 1510 1511 1512 1513 1515 1517 1517 1518 1518 1518 1518 1519 1521 1522 1522 1522 1523 1524 1524 1524 1526 1527 1527 1528 1529 1529 1529 1530 1532 1533 1534 1535 1536 1537 1537 1538 1538 1538 1538 1538 1538 1538 1538 1538 1538 1538 1537 1537 1536 1535 1535 1534 1533 1532 1531
1492 1492 1491 1491 1492 1493 1493 1494 1494 1494 1494 1494 1495 1495 1496 1496 1497 1497 1499 1500 1500 1502 1503 1503 1504 1505 1506 1507 1508 1509 1510 1511 1512 1513 1514 1515 1515 1515 1515 1515 1516 1517 1519 1519 1519 1520 1520 1520 1521 1521 1522 1523 1524 1525 1526 1527 1528 1529 1530 1531 1532 1532 1533 1534 1535 1536 1536 1536 1536 1537 1537 1537 1537 1537 1536 1536 1535 1535 1534 1534 1533 1532 1531 1530 1529
1490 1490 1490 1491 1493 1493 1494 1495 1495 1496 1496 1496 1496 1497 1497 1497 1497 1498 1499 1499 1500 1501 1502 1503 1504 1505 1506 1506 1508 1509 1510 1511 1512 1512 1513 1514 1514 1514 1514 1514 1515 1516 1516 1517 1517 1517 1518 1518 1518 1519 1520 1521 1521 1522 1523 1525 1526 1527 1528 1529 1529 1530 1531 1532 1532 1533 1534 1534 1534 1535 1535 1535 1535 1535 1535 1534 1534 1533 1533 1532 1531 1530 1529 1528 1527
1487 1488 1489 1490 1492 1493 1494 1495 1495 1496 1496 1497 1498 1498 1498 1498 1498 1499 1500 1500 1501 1501 1502 1503 1504 1505 1506 1507 1508 1509 1510 1510 1511 1511 1512 1512 1513 1513 1513 1513 1514 1514 1515 1515 1515 1515 1515 1516 1517 1517 1518 1519 1519 1520 1521 1522 1524 1525 1526 1526 1527 1528 1528 1529 1529 1530 1531 1532 1532 1532 1532 1533 1533 1533 1533 1533 1532 1532 1531 1530 1529 1528 1527 1526 1525
1485 1484 1485 1488 1490 1492 1494 1495 1495 1496 1496 1497 1498 1498 1499 1499 1499 1500 1500 1500 1501 1502 1503 1503 1504 1505 1505 1506 1507 1508 1509 1509 1510 1510 1511 1511 1511 1512 1512 1512 1513 1513 1513 1513 1513 1513 1514 1514 1515 1515 1516 1516 1517 1518 1519 1520 1521 1522 1523 1523 1524 1525 1525 1525 1526 1527 1528 1529 1530 1530 1530 1530 1530 1531 1530 1530 1530 1530 1529 1528 1527 1526 1525 1524 1524
1487 1484 1483 1485 1487 1490 1492 1493 1494 1496 1496 1497 1497 1498 1499 1499 1500 1500 1500 1501 1501 1502 1503 1503 1504 1505 1505 1505 1506 1507 1507 1508 1508 1509 1510 1510 1510 1511 1511 1511 1511 1511 1512 1511 1511 1512 1512 1512 1512 1512 1513 1514 1514 1516 1517 1518 1518 1519 1520 1520 1521 1522 1522 1522 1523 1524 1526 1526 1527 1528 1527 1527 1528 1528 1528 1528 1527 1527 1526 1526 1525 1524 1523 1522 1522
1487 1487 1486 1486 1486 1488 1490 1492 1493 1494 1496 1496 1497 1498 1499 1499 1500 1500 1500 1501 1501 1502 1502 1503 1503 1504 1504 1504 1505 1505 1506 1506 1507 1507 1508 1508 1509 1509 1509 1510 1510 1510 1510 1510 1510 1510 1510 1510 1510 1510 1511 1511 1512 1514 1514 1515 1516 1516 1517 1518 1518 1519 1519 1520 1520 1522 1523 1523 1524 1525 1525 1525 1526 1526 1526 1525 1524 1524 1523 1522 1522 1521 1521 1521 1520
1488 1489 1489 1489 1489 1489 1489 1490 1492 1493 1495 1496 1496 1497 1498 1500 1500 1500 1500 1501 1501 1502 1502 1502 1502 1503 1503 1503 1504 1504 1504 1504 1505 1506 1506 1506 1507 1507 1507 1508 1508 1508 1509 1509 1509 1509 1509 1510 1509 1509 1510 1510 1511 1512 1512 1512 1513 1513 1514 1515 1516 1516 1517 1517 1518 1520 1521 1522 1522 1523 1523 1523 1523 1524 1524 1523 1522 1522 1521 1520 1519 1519 1518 1518 1518
1490 1491 1491 1491 1492 1492 1491 1491 1492 1493 1494 1495 1496 1497 1498 1499 1499 1499 1500 1500 1501 1501 1501 1501 1502 1502 1502 1503 1503 1502 1503 1503 1504 1504 1504 1505 1505 1505 1506 1506 1506 1507 1507 1508 1508 1508 1508 1508 1508 1508 1509 1509 1510 1510 1510 1510 1510 1511 1512 1513 1513 1514 1514 1514 1516 1518 1519 1519 1520 1521 1521 1521 1522 1522 1522 1521 1521 1520 1519 1518 1517 1516 1516 1515 1515
1493 1493 1493 1492 1493 1493 1493 1493 1493 1493 1494 1494 1495 1496 1497 1497 1498 1498 1499 1500 1500 1500 1500 1501 1501 1501 1501 1501 1501 1501 1501 1502 1502 1503 1503 1503 1504 1504 1504 1505 1505 1505 1506 1506 1506 1507 1507 1507 1506 1506 1507 1508 1508 1508 1508 1508 1508 1509 1510 1511 1512 1512 1511 1512 1514 1517 1517 1517 1518 1519 1518 1519 1520 1519 1519 1519 1518 1518 1517 1516 1515 1514 1513 1513 1512
1494 1494 1494 1494 1494 1494 1494 1494 1494 1493 1493 1494 1494 1495 1495 1496 1497 1497 1498 1499 1499 1500 1500 1500 1500 1500 1500 1500 1500 1500 1500 1500 1501 1501 1502 1502 1503 1503 1503 1503 1504 1504 1504 1504 1505 1505 1505 1504 1504 1504 1505 1505 1506 1507 1507 1507 1507 1508 1509 1509 1510 1510 1510 1511 1513 1515 1516 1516 1516 1515 1515 1516 1517 1517 1517 1517 1516 1515 1515 1513 1512 1511 1510 1509 1509
1495 1495 1494 1494 1495 1495 1495 1494 1494 1494 1494 1494 1494 1494 1495 1495 1496 1496 1497 1497 1497 1498 1498 1498 1498 1498 1498 1498 1499 1499 1499 1499 1500 1500 1501 1501 1501 1502 1502 1502 1502 1502 1502 1502 1502 1502 1502 1502 1502 1503 1503 1503 1504 1505 1505 1505 1505 1506 1507 1508 1508 1508 1509 1510 1512 1513 1514 1513 1512 1512 1513 1514 1514 1515 1515 1514 1513 1513 1512 1511 1509 1508 1506 1506 1505
1494 1494 1494 1494 1494 1494 1493 1493 1493 1493 1494 1494 1494 1494 1494 1494 1495 1495 1495 1495 1496 1496 1496 1497 1496 1496 1496 1497 1497 1497 1498 1498 1498 1499 1499 1499 1500 1500 1500 1500 1500 1500 1500 1500 1500 1500 1499 1499 1500 1501 1501 1501 1502 1503 1503 1503 1503 1504 1505 1505 1506 1507 1507 1508 1509 1510 1511 1510 1510 1510 1511 1512 1512 1512 1512 1511 1510 1510 1509 1508 1506 1504 1503 1502 1501
1492 1492 1492 1492 1492 1492 1491 1491 1491 1492 1492 1493 1493 1492 1492 1492 1493 1493 1494 1494 1494 1494 1494 1495 1495 1495 1495 1495 1496 1496 1496 1496 1497 1497 1497 1497 1498 1498 1498 1498 1498 1498 1498 1498 1497 1497 1497 1497 1498 1498 1499 1499 1500 1500 1500 1501 1501 1502 1503 1503 1504 1505 1506 1507 1508 1509 1509 1509 1508 1508 1509 1510 1510 1509 1509 1508 1507 1506 1505 1504 1503 1501 1499 1498 1496
1490 1490 1490 1490 1490 1490 1490 1490 1490 1490 1490 1490 1490 1490 1490 1490 1490 1491 1492 1492 1492 1492 1493 1493 1493 1493 1493 1494 1494 1494 1495 1495 1495 1495 1495 1495 1496 1496 1496 1496 1495 1495 1495 1495 1494 1494 1494 1495 1495 1496 1496 1497 1497 1497 1498 1498 1499 1500 1501 1502 1503 1504 1505 1505 1506 1507 1508 1507 1507 1507 1506 1507 1507 1506 1506 1505 1504 1503 1502 1500 1499 1497 1496 1494 1492
1489 1488 1488 1487 1487 1487 1487 1487 1487 1487 1487 1487 1488 1488 1487 1487 1487 1488 1489 1489 1490 1490 1491 1491 1491 1491 1491 1492 1492 1492 1492 1492 1493 1493 1493 1493 1493 1493 1493 1493 1493 1493 1493 1492 1491 1491 1491 1492 1492 1493 1493 1494 1494 1495 1496 1496 1497 1499 1500 1501 1501 1502 1503 1503 1504 1505 1505 1505 1505 1504 1504 1505 1505 1504 1503 1502 1501 1500 1498 1497 1495 1494 1492 1490 1489
1488 1487 1487 1486 1485 1484 1483 1484 1484 1484 1484 1484 1484 1484 1484 1484 1484 1485 1486 1486 1486 1487 1487 1488 1488 1488 1488 1489 1489 1489 1490 1490 1490 1490 1490 1490 1490 1490 1490 1491 1491 1491 1491 1490 1489 1488 1488 1489 1490 1490 1491 1492 1493 1493 1494 1495 1496 1497 1499 1499 1500 1500 1501 1501 1502 1502 1503 1503 1503 1503 1503 1503 1502 1501 1500 1499 1498 1496 1495 1493 1492 1490 1489 1487 1486
1486 1486 1485 1484 1483 1481 1480 1480 1480 1480 1481 1481 1481 1481 1480 1480 1481 1482 1482 1483 1483 1484 1484 1484 1485 1485 1486 1486 1486 1487 1487 1487 1487 1487 1487 1487 1487 1487 1487 1488 1488 1488 1488 1487 1486 1486 1486 1486 1487 1488 1489 1490 1491 1492 1492 1494 1495 1496 1497 1497 1498 1498 1498 1498 1499 1499 1500 1501 1502 1501 1500 1500 1499 1498 1497 1496 1495 1493 1492 1491 1489 1488 1487 1485 1484
1482 1482 1481 1481 1480 1479 1478 1477 1477 1477 1477 1477 1477 1477 1477 1476 1477 1478 1478 1479 1479 1480 1480 1480 1481 1482 1482 1483 1483 1484 1484 1484 1484 1484 1483 1483 1483 1484 1484 1485 1485 1485 1485 1485 1484 1484 1484 1485 1485 1485 1487 1488 1489 1490 1491 1492 1493 1494 1495 1496 1496 1496 1496 1496 1497 1498 1499 1499 1499 1499 1498 1497 1496 1495 1494 1493 1492 1491 1490 1488 1487 1486 1485 1483 1481
1479 1478 1477 1477 1476 1476 1475 1474 1474 1474 1473 1473 1473 1473 1472 1473 1473 1473 1474 1475 1475 1475 1476 1477 1477 1478 1479 1480 1480 1480 1481 1481 1481 1480 1480 1480 1480 1480 1481 1481 1482 1482 1483 1482 1483 1483 1483 1483 1483 1484 1485 1486 1487 1489 1490 1491 1492 1492 1493 1494 1495 1495 1495 1496 1496 1497 1497 1497 1497 1496 1496 1495 1494 1493 1492 1491 1490 1489 1488 1486 1485 1484 1482 1481 1479
1475 1474 1473 1473 1472 1472 1471 1471 1470 1470 1469 1469 1468 1468 1468 1468 1468 1469 1470 1470 1470 1471 1472 1472 1473 1474 1475 1476 1476 1477 1477 1478 1478 1477 1477 1477 1477 1478 1478 1479 1479 1480 1480 1481 1481 1481 1480 1481 1482 1482 1484 1485 1486 1487 1488 1489 1490 1491 1492 1493 1494 1494 1495 1495 1495 1495 1495 1495 1495 1494 1493 1493 1492 1491 1491 1490 1489 1487 1486 1484 1482 1481 1479 1478 1476
1471 1470 1469 1468 1468 1467 1467 1466 1466 1466 1465 1465 1464 1464 1464 1464 1465 1465 1466 1466 1466 1467 1468 1469 1470 1471 1471 1472 1473 1473 1474 1474 1474 1473 1474 1474 1475 1475 1476 1477 1477 1478 1478 1479 1480 1479 1479 1479 1479 1480 1482 1483 1484 1486 1487 1488 1490 1491 1492 1493 1493 1493 1493 1493 1493 1493 1493 1493 1492 1492 1491 1491 1490 1489 1489 1488 1486 1484 1482 1481 1479 1478 1476 1475 1473
1467 1466 1465 1464 1464 1463 1462 1461 1461 1461 1461 1460 1459 1459 1459 1460 1460 1461 1462 1462 1463 1463 1464 1465 1466 1467 1468 1468 1469 1470 1471 1470 1469 1469 1470 1472 1472 1473 1474 1475 1475 1476 1476 1477 1478 1478 1477 1477 1478 1479 1481 1483 1484 1485 1487 1488 1489 1490 1491 1492 1492 1492 1492 1492 1492 1492 1491 1491 1490 1490 1489 1489 1488 1487 1486 1485 1483 1481 1480 1478 1477 1476 1474 1472 1470
1464 1462 1461 1460 1460 1459 1458 1457 1456 1456 1456 1455 1455 1454 1454 1455 1456 1457 1457 1458 1459 1460 1460 1461 1462 1464 1464 1465 1466 1466 1467 1466 1466 1466 1467 1469 1469 1470 1471 1472 1473 1473 1474 1475 1476 1476 1476 1477 1478 1480 1482 1484 1485 1486 1487 1488 1489 1490 1490 1491 1491 1491 1491 1491 1491 1490 1490 1489 1489 1488 1488 1488 1487 1486 1484 1482 1481 1479 1478 1476 1475 1473 1471 1469 1467